Home > Weather > Kløfta > Past weeks

Flag for Norway Weather for the Past 2 Weeks in Kløfta, Norway

Now
55 °F

Sunny.


Feels Like: 55 °F
Forecast: 37 / 58 °F
Wind: 3 mph from West

Location: Oslo Gardermoen Airport

Current Time: May 4, 2016 at 2:21:30 PM

Latest Report: May 4, 2016 at 1:20 PM


Visibility: 10 mi

Pressure: 30.24 "Hg

Humidity: 28%

Dew Point: 23 °F

Location of KløftaLocation

Historic Weather in Kløfta — Graph

°F

Kløfta Temperature Yesterday

Maximum temperature yesterday: 48 °F (at 1:20 PM)
Minimum temperature yesterday: 43 °F (at 4:50 AM)
Average temperature yesterday: 46 °F

High & Low Weather Summary for the Past Weeks

 TemperatureHumidityPressure
High55 °F (Apr 21, 2:50 PM)100% (May 1, 1:20 AM)30.24 "Hg (May 1, 1:20 AM)
Low27 °F (Apr 23, 4:50 AM)19% (Apr 21, 2:50 PM)29.53 "Hg (Apr 29, 4:20 AM)
Average41 °F58%29.91 "Hg
* Reported Apr 19 12:20 PM — May 4 12:50 PM, Kløfta, Weather by CustomWeather, © 2016

Note: Actual official high and low records may vary slightly from our data, if they occured in-between our weather recording intervals... More about our weather records

Advertising

Kløfta Weather History for the Previous 24 Hours

Scroll right to see more
 ConditionsComfort  
Time TempWeatherWind HumidityBarometerVisibility
12:50 PM
Wed, May 4
54 °FSunny.5 mph33%30.24 "Hg10 mi
12:20 PM54 °FSunny.5 mph35%30.24 "Hg10 mi
11:50 AM54 °FSunny.2 mph35%30.24 "Hg10 mi
11:20 AM52 °FSunny.6 mph38%30.24 "Hg10 mi
10:50 AM52 °FSunny.5 mph38%30.24 "Hg10 mi
9:50 AM48 °FPassing clouds.6 mph54%30.21 "HgN/A
9:20 AM46 °FSunny.2 mph53%30.21 "Hg10 mi
8:50 AM45 °FFog.2 mph61%30.21 "HgN/A
8:20 AM43 °FFog.No wind61%30.21 "HgN/A
7:50 AM39 °FFog.No wind75%30.21 "HgN/A
7:20 AM37 °FFog.No wind81%30.18 "HgN/A
6:50 AM36 °FPassing clouds.No wind87%30.18 "HgN/A
6:20 AM34 °FSunny.No wind87%30.18 "Hg10 mi
5:50 AM32 °FPassing clouds.3 mph87%30.15 "HgN/A
5:20 AM32 °FPassing clouds.6 mph87%30.15 "HgN/A
4:50 AM34 °FPassing clouds.5 mph87%30.15 "HgN/A
4:20 AM34 °FPassing clouds.3 mph87%30.15 "HgN/A
3:50 AM34 °FPassing clouds.3 mph87%30.12 "HgN/A
3:20 AM34 °FClear.3 mph81%30.12 "Hg10 mi
2:50 AM34 °FClear.No wind87%30.12 "Hg10 mi
2:20 AM34 °FClear.No wind87%30.09 "Hg10 mi
1:50 AM39 °FClear.1 mph75%30.09 "Hg10 mi
1:20 AM39 °FClear.5 mph75%30.09 "Hg10 mi
12:50 AM41 °FPassing clouds.3 mph70%30.09 "HgN/A
12:20 AM41 °FClear.2 mph70%30.07 "Hg10 mi
11:50 PM
Tue, May 3
43 °FClear.2 mph66%30.07 "Hg10 mi
11:20 PM43 °FClear.2 mph76%30.04 "Hg10 mi
10:50 PM45 °FPassing clouds.3 mph81%30.04 "HgN/A
10:20 PM45 °FClear.5 mph87%30.04 "Hg10 mi
9:50 PM45 °FSunny.No wind87%30.01 "Hg10 mi
9:20 PM46 °FSunny.7 mph82%30.01 "Hg10 mi
8:50 PM48 °FPartly sunny.8 mph76%29.98 "HgN/A
8:20 PM48 °FPartly sunny.9 mph76%29.98 "HgN/A
7:50 PM48 °FPartly sunny.12 mph76%29.98 "HgN/A
7:20 PM48 °FBroken clouds.12 mph76%29.98 "HgN/A
6:50 PM48 °FScattered showers. Broken clouds.10 mph76%29.95 "HgN/A
6:20 PM48 °FBroken clouds.12 mph76%29.95 "HgN/A
5:50 PM48 °FBroken clouds.16 mph76%29.95 "HgN/A
5:20 PM48 °FBroken clouds.16 mph82%29.95 "HgN/A
4:50 PM48 °FBroken clouds.16 mph82%29.95 "HgN/A
4:20 PM48 °FMore clouds than sun.17 mph82%29.92 "HgN/A
3:50 PM48 °FMore clouds than sun.17 mph82%29.92 "HgN/A
3:20 PM48 °FSprinkles. Overcast.16 mph87%29.92 "HgN/A
2:50 PM48 °FDrizzle. Overcast.12 mph87%29.92 "Hg6 mi
2:20 PM48 °FOvercast.12 mph87%29.92 "HgN/A
Weather by CustomWeather, © 2016

See weather overviewHow to use our weather pages